Hourly Data Report for October 06, 2017

All times are specified in Local Standard Time (LST). Add 1 hour to adjust for Daylight Saving Time where and when it is observed.

GRAND ETANG
NOVA SCOTIA

46°33'00.000" N
61°03'00.000" W
12.80 m
8201969
73030
WZQ

Related Data

No related data is available for this station

Download Data

Hourly Data (October 2017)
Hourly Data Report for October 6, 2017
Temp Definition
°C
Dew Point Temp Definition
°C
Rel Hum Definition
%
Wind Dir Definition
10's deg

Wind Spd Definition
km/h
Visibility Definition
km
Stn Press Definition
kPa
Hmdx Definition


Wind Chill Definition


Weather Definition


TIME
00:00 11.0 8.9 87 17 12   101.08     LegendNANA
01:00 12.1 9.7 85 16 16   101.04     LegendNANA
02:00 12.4 10.4 88 16 16   100.99     LegendNANA
03:00 13.6 10.3 81 17 15   100.97     LegendNANA
04:00 14.1 9.8 75 18 17   100.98     LegendNANA
05:00 14.2 10.3 77 19 17   101.03     LegendNANA
06:00 15.5 12.9 84 23 25   101.08     LegendNANA
07:00 15.2 13.1 88 20 15   101.10     LegendNANA
08:00 15.2 12.6 84 24 19   101.18     LegendNANA
09:00 15.0 11.9 82 30 25   101.24     LegendNANA
10:00 14.5 12.1 85 30 26   101.28     LegendNANA
11:00 15.3 12.5 83 30 19   101.28     LegendNANA
12:00 16.4 13.6 83 30 20   101.28     LegendNANA
13:00 16.7 12.5 77 30 16   101.27     LegendNANA
14:00 15.1 10.7 75 29 16   101.31     LegendNANA
15:00 15.9 12.0 78 28 14   101.33     LegendNANA
16:00 14.4 10.9 80 27 8   101.33     LegendNANA
17:00 13.6 10.3 80 27 11   101.40     LegendNANA
18:00 11.5 8.5 82 14 9   101.43     LegendNANA
19:00 11.4 10.1 92 14 8   101.44     LegendNANA
20:00 9.8 7.7 87 14 12   101.48     LegendNANA
21:00 9.0 8.3 96 12 10   101.53     LegendNANA
22:00 8.9 7.6 91 14 16   101.56     LegendNANA
23:00 10.3 8.3 88 14 12   101.61     LegendNANA

Notes on Data Quality.

Legend

  • E = Estimated
  • M = Missing
  • NA = Not Available
  • ‡ = Partner data that is not subject to review by the National Climate Archives
Date modified: